Theta_e
319 319 319 319 319 320 320 321 321 321 321 322 322 321 321 320 321 322 325 323 324 323 321 318 321 322 320 321 318 316 314 308 306 303 301 304 315 321 322 321 322 322 319 305 304 302 301 301 301 302 303 301 298 300 298 298 297 302 295 292 288 289 288 290 289 289 291 290 291 292 292 293 291 294 295 295 295 295 294 295 296 297 297 296 296 297 296 296
318 318 318 318 319 320 320 320 320 321 321 321 321 322 321 321 320 321 322 322 323 325 320 319 318 320 320 319 320 318 307 309 304 301 301 312 318 320 322 321 321 320 312 302 300 300 300 298 299 302 300 297 301 297 301 295 299 295 292 292 287 288 289 292 291 291 291 290 292 292 292 293 292 293 295 293 293 294 294 294 295 295 297 297 297 296 295 295
318 318 318 319 320 321 321 321 321 322 321 321 322 322 322 321 321 323 323 324 321 320 324 321 322 318 317 319 318 315 310 309 304 298 302 317 318 319 321 321 320 317 301 300 300 301 300 298 299 300 299 296 297 295 298 293 298 292 294 287 288 291 290 292 292 291 292 293 292 292 292 292 293 293 296 293 292 294 292 292 294 294 294 295 296 296 297 297
318 318 318 318 319 319 320 321 321 321 321 322 321 322 322 322 323 323 324 323 321 321 321 323 324 318 319 317 317 310 310 313 296 299 304 317 318 319 319 320 317 313 304 301 301 300 300 302 301 301 297 295 296 297 294 294 294 293 293 288 289 292 291 291 292 292 292 292 292 292 292 292 294 294 294 293 292 293 293 294 292 293 293 294 295 296 295 295
318 318 317 318 318 318 319 320 320 321 322 322 321 322 321 323 322 323 324 324 326 324 323 323 321 317 317 317 311 315 306 300 296 302 305 315 318 319 317 317 315 310 305 301 304 304 303 302 303 299 298 294 296 295 292 295 296 293 290 292 292 292 291 291 292 292 292 291 292 292 292 292 295 294 294 294 291 290 293 295 295 294 294 293 293 294 294 294
317 317 317 317 317 318 318 319 319 320 320 321 322 321 322 323 323 323 324 326 324 323 322 323 322 314 316 317 317 312 306 289 300 301 314 314 317 315 315 314 313 308 306 304 303 303 303 302 302 297 295 294 292 291 292 293 293 289 291 290 293 293 291 292 292 291 290 292 292 292 292 294 293 293 293 293 292 294 296 295 294 294 294 294 294 293 294 294
317 316 316 316 317 317 318 319 318 319 320 321 321 321 324 321 323 324 324 324 324 325 324 322 319 315 314 315 312 306 298 296 301 305 310 314 315 312 314 309 310 307 308 306 305 302 301 299 299 296 295 294 294 293 294 295 297 294 288 292 291 293 291 291 292 290 291 292 291 292 293 292 292 290 292 293 294 295 295 294 293 293 294 293 293 296 295 294
317 316 316 316 317 317 318 319 319 319 319 321 322 323 322 324 323 320 322 323 321 321 320 320 320 319 319 312 310 299 298 296 301 304 309 311 306 306 309 306 305 307 305 302 303 303 303 299 297 298 296 293 293 294 295 294 295 291 289 292 291 292 291 291 291 292 292 291 292 292 292 292 291 292 294 292 294 294 295 295 293 294 295 295 296 295 295 294
317 316 316 316 317 318 318 318 319 319 321 321 322 322 323 324 322 319 319 321 323 321 317 319 318 313 312 313 308 299 294 302 302 302 304 301 301 303 305 302 304 305 304 304 306 303 305 297 297 299 293 293 294 293 293 293 290 293 292 292 292 291 292 292 292 292 292 293 293 292 292 292 293 292 291 293 294 294 294 295 294 294 296 296 295 295 295 294
317 316 316 316 317 318 318 318 318 318 319 320 321 322 323 322 321 319 320 319 322 322 317 315 316 316 317 311 304 295 300 304 306 304 302 301 301 303 303 302 303 304 302 302 303 305 303 301 300 300 298 294 295 291 295 294 291 294 293 293 291 291 292 292 292 291 291 291 292 293 292 292 293 292 290 294 294 294 294 295 295 295 296 296 296 296 296 294
316 316 316 317 318 319 319 318 318 318 318 319 319 320 321 320 318 318 320 321 320 322 320 319 316 314 308 307 299 293 304 307 305 304 302 302 302 301 300 301 302 304 303 301 300 301 302 303 305 304 303 295 296 292 293 291 295 293 292 291 290 290 292 292 292 292 292 291 291 291 292 293 293 292 290 292 294 294 293 295 296 296 296 296 296 296 296 295
317 317 317 317 317 318 320 321 321 318 318 318 318 318 319 318 318 319 320 320 321 321 317 315 311 315 309 301 297 297 307 303 304 304 303 303 301 299 301 301 302 302 302 299 300 301 302 303 303 304 296 300 291 294 291 294 294 292 291 290 289 290 291 290 289 291 291 291 291 289 290 291 291 289 292 293 293 294 294 295 296 295 296 296 296 296 296 295
317 317 317 317 317 317 318 319 320 321 322 321 317 317 318 318 318 318 320 319 319 321 316 313 308 311 308 297 298 307 307 303 306 304 304 305 303 300 301 304 304 302 304 300 299 301 302 303 306 297 299 296 292 292 294 295 291 292 292 291 290 290 290 290 291 292 291 291 291 290 286 287 289 291 293 293 293 294 295 295 296 295 295 296 296 296 296 296
316 316 316 317 317 316 316 317 319 320 320 321 316 316 317 318 318 320 320 317 318 321 315 314 316 311 304 296 303 309 308 307 306 303 301 304 305 309 304 307 307 304 305 303 302 302 303 305 303 299 300 297 293 297 293 292 292 291 288 291 289 290 287 289 289 290 291 291 291 290 286 287 290 292 293 293 293 293 294 295 295 295 295 296 296 296 296 296
315 316 316 316 316 316 317 316 317 318 318 319 316 315 316 317 316 319 318 316 315 318 320 319 317 314 300 298 310 311 311 304 303 301 302 301 301 304 303 304 304 303 303 304 303 304 306 304 304 298 294 296 297 294 291 291 291 291 290 289 290 289 288 289 288 289 287 291 292 290 287 287 289 291 293 292 293 293 293 294 295 295 295 295 296 296 296 296
314 315 315 316 315 316 315 316 316 316 317 317 315 315 315 316 317 318 317 316 315 314 312 316 306 309 301 297 303 314 307 300 299 302 301 303 301 300 300 303 301 307 306 303 301 305 305 302 296 295 295 297 294 293 292 293 292 292 291 287 286 288 288 289 287 289 290 290 292 290 287 288 289 292 293 292 292 294 293 294 294 294 295 295 295 296 296 296
314 315 314 315 315 315 316 316 315 316 315 315 316 316 316 315 315 318 313 308 307 313 312 305 309 309 298 306 312 303 298 302 302 303 303 302 301 300 304 306 303 305 306 305 308 309 303 300 294 297 297 292 291 289 290 291 289 289 290 286 285 284 287 287 289 289 290 290 289 291 289 288 290 292 293 293 292 293 293 293 294 294 295 295 295 295 295 295
314 314 314 314 315 315 316 315 315 314 315 315 315 318 319 317 314 312 314 314 309 309 306 310 304 309 298 310 294 297 303 301 302 299 302 302 299 302 302 300 300 302 305 305 305 299 299 296 298 290 292 290 291 293 290 284 285 285 286 287 286 286 284 285 285 287 288 290 289 289 289 289 291 292 293 292 292 292 293 293 293 293 294 294 294 295 295 295
313 313 314 314 314 315 316 315 314 315 312 314 316 316 314 313 314 308 304 306 310 304 302 297 299 292 288 296 303 303 302 301 300 302 301 301 302 301 304 303 302 305 300 299 296 297 296 295 295 291 285 285 284 286 287 286 286 284 285 284 284 285 286 286 286 287 286 286 288 287 287 288 289 291 292 293 293 292 292 293 294 294 294 294 294 294 295 295
313 313 313 314 314 315 316 315 312 313 311 315 313 312 316 309 306 303 302 301 296 297 299 299 300 301 301 299 298 301 304 301 302 304 303 303 302 304 304 302 303 301 297 293 294 293 295 288 284 283 284 284 284 284 285 285 285 285 285 284 284 284 286 286 286 285 287 286 286 286 287 288 289 290 290 292 292 293 292 292 293 293 293 294 294 294 295 295
312 312 313 313 313 314 315 315 311 313 309 310 314 313 302 304 303 291 293 294 293 295 299 297 298 297 298 298 300 298 299 302 304 302 302 305 299 303 298 301 300 296 292 289 292 296 295 287 284 284 285 284 283 284 284 284 285 285 285 285 285 284 286 286 285 286 288 286 287 287 287 288 289 289 290 291 291 291 291 291 292 292 293 294 294 294 295 295
312 312 312 312 313 314 315 315 312 310 310 311 308 301 297 297 298 299 303 293 297 298 299 297 296 298 297 298 298 296 297 299 303 300 304 305 302 302 296 297 294 290 293 292 293 293 289 284 285 285 285 285 285 284 285 285 284 285 286 285 285 286 285 287 285 285 287 287 288 287 286 288 288 289 290 290 289 291 291 291 291 291 293 293 294 294 294 295
311 312 312 312 312 314 315 313 308 309 309 307 303 301 299 298 296 294 302 299 295 296 300 298 297 298 299 300 298 298 298 292 292 299 298 302 300 295 295 293 291 292 293 296 292 289 287 288 286 285 285 285 286 285 284 284 286 286 286 286 285 284 284 285 284 285 286 286 285 285 284 287 289 289 290 290 290 290 292 291 291 292 291 292 292 292 292 293
311 311 312 313 311 312 313 312 307 308 300 302 301 298 296 294 296 296 303 294 295 294 298 295 295 296 296 297 298 298 297 294 296 294 301 300 295 294 295 292 291 289 288 290 290 287 285 287 287 285 285 285 284 284 285 286 286 285 284 283 284 282 282 282 285 284 285 285 285 285 284 287 288 287 288 290 290 290 291 291 292 292 292 292 293 293 294 292
309 310 311 311 311 313 313 312 305 299 297 303 300 297 293 294 295 294 303 292 298 297 295 297 293 297 297 299 302 298 294 296 295 296 299 298 296 296 292 289 292 287 288 288 292 289 286 287 285 286 286 286 285 284 281 282 286 284 283 283 282 282 281 283 283 284 286 286 284 281 285 285 286 287 287 289 289 289 290 288 290 291 292 293 292 292 294 294
309 310 310 311 312 313 313 311 300 300 304 299 298 296 293 294 295 294 302 290 288 292 302 294 301 297 300 299 299 293 295 295 295 298 299 297 297 295 292 291 291 288 287 289 287 287 286 287 286 285 286 286 285 284 282 282 284 285 283 283 283 282 282 282 284 285 286 285 283 282 282 283 285 285 287 288 288 289 290 289 289 291 292 293 293 293 292 293
309 310 310 310 309 309 309 303 299 300 302 296 297 294 294 296 295 298 296 290 287 291 291 299 300 297 301 296 294 296 293 294 302 298 297 299 295 297 294 289 291 286 283 282 289 286 287 288 287 285 285 286 287 286 284 282 284 285 282 284 282 282 282 282 283 284 285 283 283 282 283 282 284 287 288 287 286 289 289 289 290 291 292 293 293 293 293 293
309 309 310 310 308 307 303 300 302 303 297 297 295 293 293 294 295 297 300 280 280 296 290 297 297 305 301 297 301 297 293 294 294 298 297 298 297 299 295 289 288 288 288 286 288 286 286 287 286 285 286 286 284 284 285 284 284 284 283 284 283 283 283 282 284 285 281 281 284 285 281 282 284 286 287 286 286 288 289 288 289 291 292 292 293 293 293 293
308 309 310 309 307 304 303 303 303 299 296 293 292 292 293 295 296 299 290 281 286 289 304 293 301 299 296 302 297 293 294 294 292 295 299 301 300 295 293 290 290 289 288 289 289 286 285 286 285 284 286 284 285 286 285 284 284 285 284 285 283 283 282 283 285 285 283 282 284 280 280 282 284 286 288 287 286 287 289 289 289 290 291 292 292 293 293 293
307 308 309 307 310 310 301 302 300 297 294 292 292 292 295 297 301 291 282 275 287 286 293 295 297 291 292 294 293 294 293 292 290 293 297 292 296 297 290 290 292 293 290 291 288 287 285 288 289 286 285 286 285 286 283 284 284 286 285 284 285 285 283 282 283 284 284 282 283 279 281 281 281 285 288 287 286 288 289 289 289 291 292 292 293 293 293 292
307 307 307 305 304 297 298 299 296 293 292 294 295 297 298 302 293 285 273 283 292 289 293 291 289 292 289 291 292 292 291 291 292 292 293 295 292 293 293 290 296 291 291 291 288 288 286 287 287 288 288 288 286 285 284 284 285 284 284 283 285 284 282 284 284 282 281 283 280 280 279 281 280 285 288 290 289 289 289 288 289 290 291 291 292 293 293 293
308 305 305 303 300 296 301 299 295 293 294 294 297 303 301 291 292 285 280 296 284 287 286 288 288 285 287 286 286 287 287 291 289 289 288 287 286 285 284 285 282 289 289 286 287 288 287 286 286 287 287 285 285 286 287 285 286 286 283 285 284 284 284 283 284 281 282 282 280 279 281 279 281 287 289 290 290 290 290 289 289 290 290 291 292 292 292 293
306 304 305 302 301 300 298 293 293 295 296 297 303 304 295 289 279 282 281 282 283 284 286 286 287 286 283 285 287 286 285 288 290 289 286 287 288 285 286 285 284 285 286 285 286 287 287 285 288 287 287 288 287 286 286 286 287 285 284 282 285 283 280 277 281 278 279 282 278 280 280 279 286 288 290 289 290 290 289 290 290 290 290 290 291 292 291 292
304 303 302 299 298 297 296 293 293 294 297 302 302 296 293 287 280 285 278 284 282 283 285 286 286 286 283 288 286 283 288 287 287 289 290 287 286 286 288 288 286 285 286 286 284 283 287 287 287 286 286 287 286 284 284 283 284 284 282 283 284 282 281 277 279 279 280 280 281 278 278 282 284 287 288 289 289 288 288 288 289 288 289 289 289 290 290 292
303 300 299 299 299 295 294 290 294 296 299 304 297 294 287 282 281 283 284 284 282 282 284 281 284 287 287 285 284 285 286 287 286 286 287 286 285 284 283 284 286 285 283 286 283 283 283 285 286 286 285 285 284 284 284 282 283 284 284 285 285 280 282 281 278 279 277 277 279 278 280 284 286 287 288 288 288 288 289 289 289 289 290 290 290 291 292 292
306 303 301 300 300 298 293 294 294 297 302 303 294 288 288 285 284 283 285 287 284 284 284 283 288 289 286 289 284 284 286 286 288 286 285 285 283 284 283 283 283 283 283 286 283 284 284 285 285 285 285 285 284 284 284 283 283 285 286 284 281 282 282 278 272 270 271 274 278 282 282 286 289 287 288 287 287 289 288 289 289 290 291 291 291 292 293 293
303 302 303 299 301 297 293 293 295 298 303 301 294 286 284 278 280 283 287 286 286 285 286 286 285 286 286 287 287 286 285 286 285 286 286 283 285 282 283 284 283 284 283 284 284 284 283 285 285 284 284 284 283 283 284 284 284 285 284 283 282 282 282 281 280 277 278 277 281 279 280 283 283 284 287 288 287 289 289 289 289 289 290 290 292 294 294 294
304 301 300 298 299 297 294 293 296 301 301 295 286 286 278 280 282 284 285 284 284 285 288 288 284 282 283 284 288 285 287 288 287 286 284 285 284 286 283 284 283 283 283 283 284 283 283 284 285 283 282 285 284 284 285 286 286 286 284 284 282 281 281 281 279 277 276 277 278 281 280 281 283 285 286 287 287 288 289 290 289 290 291 291 292 293 294 294
298 302 302 296 298 296 297 295 301 305 297 290 285 289 281 280 283 284 284 284 285 286 289 285 286 280 283 285 285 283 282 288 284 284 285 284 285 285 284 284 283 283 282 283 284 284 284 283 286 281 283 284 285 285 284 285 286 284 286 284 281 283 281 280 280 279 280 278 277 281 279 283 285 287 288 288 288 289 290 289 290 290 291 291 291 292 292 293
302 304 299 296 297 296 296 299 300 296 294 291 286 281 280 282 283 284 283 284 285 285 287 285 281 284 280 282 283 287 283 282 285 285 285 284 285 286 284 284 283 283 283 283 283 282 283 283 284 285 282 284 285 284 284 283 284 284 284 284 283 281 279 280 279 279 279 277 276 275 277 285 288 288 289 290 290 290 290 290 291 291 292 292 292 291 292 292
294 299 298 296 298 295 298 296 288 284 283 278 279 278 278 280 283 283 284 283 285 284 285 286 285 288 284 283 283 281 283 283 283 286 284 284 285 285 284 284 282 283 283 283 284 283 283 283 282 285 285 285 283 282 282 282 282 283 283 284 284 283 281 279 279 272 273 277 274 274 277 284 289 286 289 290 289 288 289 289 290 291 291 291 292 292 292 291
300 292 297 295 295 296 300 292 282 276 285 285 284 282 284 286 282 284 283 282 283 285 283 284 282 283 282 282 284 281 283 284 282 284 283 286 285 285 283 280 282 282 283 284 284 283 284 283 283 284 286 284 281 281 280 281 280 279 282 283 283 283 282 281 277 277 273 274 271 275 273 281 289 286 286 287 287 287 287 286 287 289 290 290 290 291 291 292
298 296 294 294 295 296 297 286 285 284 282 281 280 283 282 282 282 282 283 282 283 284 284 284 285 283 281 282 279 280 281 284 284 285 284 283 282 283 281 280 281 281 284 283 281 283 284 282 282 284 284 281 281 281 280 280 280 280 280 280 281 282 283 282 282 281 279 273 275 274 272 281 289 287 286 286 286 286 286 285 286 288 289 290 291 291 291 291
296 296 301 296 294 297 301 290 287 282 280 279 281 281 282 282 282 281 281 282 283 283 286 283 282 282 283 280 282 281 281 283 284 284 284 282 284 281 281 281 279 283 283 284 283 285 282 283 281 282 284 284 281 281 280 277 279 281 283 282 281 280 280 279 278 278 278 277 278 278 276 285 288 287 287 286 287 288 289 290 288 288 290 291 291 291 292 292
295 294 291 296 296 298 293 290 288 284 283 280 279 280 282 282 282 283 283 284 284 283 284 284 284 284 280 278 276 277 275 282 283 281 282 282 284 281 281 280 281 284 284 285 286 285 283 283 282 281 278 277 278 279 282 284 283 283 281 279 279 281 279 280 278 277 277 276 276 277 280 287 288 288 288 289 289 289 291 291 291 290 289 289 290 291 291 291
295 290 293 295 293 292 287 286 288 287 282 279 282 282 282 283 283 281 282 283 283 282 282 284 282 283 281 280 279 277 277 276 281 282 283 284 282 281 281 281 282 284 283 284 284 284 280 278 280 284 283 283 285 285 285 285 283 281 281 279 280 281 282 282 282 278 278 278 275 280 283 285 286 288 289 290 289 288 289 291 290 291 291 292 291 291 291 291
293 293 289 291 293 291 287 287 285 287 288 287 287 282 281 282 282 282 281 281 283 282 282 283 282 283 282 283 280 277 272 275 276 276 281 284 282 282 280 281 282 285 286 284 284 282 280 280 281 279 281 284 286 285 284 283 281 283 282 281 281 280 280 280 279 279 282 278 277 283 283 281 283 286 288 289 290 291 291 290 290 291 291 290 290 289 289 290
292 288 289 285 288 288 292 289 286 285 284 287 284 282 283 282 281 282 281 282 281 280 282 282 282 283 286 286 283 284 276 275 273 281 280 279 281 280 281 280 282 282 285 283 283 282 281 279 279 277 279 282 282 282 282 281 281 281 281 282 281 281 279 278 279 283 281 279 280 282 280 281 284 286 288 289 290 290 290 290 291 290 289 289 288 288 289 290
290 287 288 284 290 283 285 284 285 287 286 285 285 283 281 282 283 284 283 282 282 283 283 283 284 285 285 283 286 285 279 283 282 277 279 281 282 282 282 280 281 282 283 281 280 277 281 279 278 277 278 279 281 281 282 280 280 280 280 280 281 281 280 280 281 282 282 281 283 284 284 283 285 286 288 290 291 290 290 290 290 289 289 289 288 288 288 290
292 292 289 286 286 283 284 285 284 288 287 286 286 284 285 283 284 282 281 283 282 282 283 282 284 283 284 283 284 287 286 287 287 283 283 282 279 281 284 285 282 281 282 281 279 276 280 280 279 275 276 281 282 279 278 280 280 279 281 282 281 281 281 281 281 281 282 281 281 282 281 280 286 289 289 290 290 290 289 288 289 290 290 289 289 289 290 291
290 288 291 291 290 286 286 285 287 288 288 286 288 282 283 283 285 285 284 286 286 284 281 286 286 281 282 282 283 285 290 288 289 288 286 286 286 287 285 283 286 281 280 278 279 277 279 280 275 275 278 280 279 279 280 280 280 278 278 280 281 280 278 279 278 281 280 279 281 279 278 280 286 290 290 289 288 288 288 289 290 291 291 290 289 290 290 291
290 289 290 294 288 286 287 283 284 285 288 289 289 286 286 288 286 285 286 285 283 285 286 288 284 286 281 282 283 287 289 288 289 287 287 286 286 284 284 285 286 284 281 281 280 281 279 280 278 278 277 279 280 278 280 279 279 281 283 285 282 281 281 281 282 282 282 284 280 278 281 288 291 290 287 289 290 290 289 290 291 291 292 292 291 291 291 291
Wind_Speed
9 9 9 10 10 10 10 10 10 10 9 10 9 10 9 9 9 8 8 7 6 7 9 9 6 6 3 3 2 2 5 6 17 25 29 15 19 25 24 24 23 21 20 8 4 3 7 11 11 7 8 11 7 5 4 9 6 2 6 7 9 5 7 3 4 4 3 3 4 3 3 2 4 3 3 3 3 2 1 4 2 3 1 1 3 4 7 9
9 9 9 9 10 10 10 10 9 9 9 8 8 9 8 9 9 8 7 6 6 7 9 8 6 5 3 4 1 2 2 6 15 27 21 19 27 27 26 25 22 20 17 7 7 2 8 9 6 12 8 8 7 6 5 6 7 8 6 7 8 3 4 2 4 3 2 5 2 2 0 3 5 4 3 2 6 5 3 4 3 5 4 2 4 7 8 9
10 10 10 10 10 10 10 9 9 8 8 7 7 7 7 7 7 6 6 6 7 7 7 8 6 4 2 1 2 2 2 9 23 24 19 27 29 27 27 24 22 17 9 6 6 9 9 5 2 15 9 11 10 7 10 6 6 9 4 10 8 7 7 4 2 5 3 1 2 1 2 2 4 2 3 3 3 6 9 8 8 10 11 11 10 8 9 8
11 11 11 11 10 10 10 9 9 8 7 7 6 6 6 6 6 6 6 7 8 8 9 9 9 5 3 2 1 1 1 5 17 11 18 27 28 27 25 23 20 13 5 5 2 7 3 6 11 14 11 14 8 7 12 8 2 4 7 7 8 7 8 4 1 3 1 3 2 2 1 1 4 3 4 6 3 7 7 6 7 10 11 12 11 10 9 9
11 11 12 12 11 10 10 9 9 8 8 7 6 6 5 5 6 6 6 8 8 10 9 9 11 13 4 4 6 1 3 7 7 13 19 28 26 25 23 21 18 10 5 1 2 5 4 8 6 12 9 7 6 11 10 12 9 8 10 11 9 3 8 3 1 2 1 1 2 1 1 4 2 0 5 7 7 6 7 8 7 7 8 10 11 11 9 10
12 12 12 11 11 10 9 9 9 8 7 6 6 6 6 5 6 7 7 8 9 9 10 7 7 8 13 9 2 3 2 7 8 14 20 26 24 23 21 16 17 8 3 3 4 7 6 7 7 8 6 9 10 11 4 2 6 11 6 5 5 3 7 1 0 1 2 1 3 3 3 3 2 4 3 4 5 5 4 5 6 6 7 7 8 8 10 11
12 12 12 11 10 9 8 9 8 8 7 6 5 6 6 6 6 7 7 8 10 11 11 6 1 5 1 8 13 26 17 7 6 12 19 23 22 19 17 9 11 6 3 14 11 12 11 15 20 10 13 16 12 14 12 13 11 14 9 6 7 4 7 2 2 1 2 3 3 2 2 0 1 4 1 3 4 3 4 3 5 6 6 5 7 7 9 9
13 13 13 12 11 10 9 8 8 7 7 6 6 6 6 6 7 9 8 8 9 10 9 7 5 1 1 2 3 13 14 8 15 10 17 21 18 19 18 9 15 11 18 10 5 7 6 14 15 5 11 10 2 12 8 17 13 13 11 6 5 6 4 2 2 1 2 4 1 2 2 3 2 2 2 6 4 5 5 4 5 5 6 4 6 9 9 9
13 13 13 12 11 9 8 8 7 6 5 6 6 6 7 7 8 8 8 7 8 10 14 11 7 1 2 0 2 15 11 7 6 10 15 16 15 14 14 14 15 11 9 13 10 2 0 4 5 4 8 12 1 10 3 2 10 8 12 8 6 6 5 3 3 5 3 1 4 3 5 3 2 2 1 4 7 7 6 5 4 6 6 6 7 8 8 9
12 12 11 9 8 7 7 8 10 11 10 9 8 7 7 7 7 7 8 9 8 10 13 17 17 10 5 4 13 16 4 3 4 9 14 12 11 12 16 14 13 13 13 13 16 15 12 7 16 14 17 14 3 7 3 6 9 7 11 11 11 7 6 7 6 3 2 4 7 2 4 3 2 3 3 1 8 8 5 4 2 5 7 7 7 7 7 8
11 11 10 9 8 7 8 10 10 11 12 12 11 8 7 7 7 9 8 6 7 7 8 6 8 8 13 16 15 11 1 4 4 9 12 11 8 11 13 11 13 12 12 13 12 7 6 9 5 4 5 5 8 12 11 6 10 10 12 9 7 5 12 7 7 7 3 2 7 5 4 2 1 2 5 8 9 6 6 5 5 6 7 8 9 8 7 6
12 11 11 10 10 10 9 9 9 10 12 13 13 10 8 8 9 9 8 5 6 4 6 4 3 1 11 23 16 4 1 2 4 8 9 10 5 4 4 7 10 11 12 14 11 6 3 1 3 1 6 6 10 11 9 3 6 6 3 4 3 2 8 11 9 7 4 3 3 4 4 4 5 5 6 7 8 6 5 4 5 6 7 8 8 8 7 7
13 13 12 12 11 11 10 10 10 9 8 10 12 12 8 7 7 8 8 7 10 5 6 5 1 2 3 17 6 3 2 2 3 6 8 9 2 1 1 5 8 8 8 12 8 6 2 3 4 18 6 3 4 3 8 3 4 3 1 1 4 3 8 10 5 11 1 3 3 1 2 5 5 4 5 6 7 7 3 4 6 6 7 7 7 7 7 7
14 14 13 12 11 10 10 10 10 9 9 8 11 12 8 5 7 8 9 6 9 6 4 8 5 8 15 4 3 2 3 2 4 9 15 12 6 1 3 5 6 5 4 9 7 2 5 9 16 14 5 6 7 4 10 3 2 1 1 2 3 1 5 7 7 14 0 3 3 2 1 3 3 4 6 6 6 6 5 5 6 7 7 7 7 6 7 7
14 13 13 12 11 10 9 10 10 9 9 7 10 14 9 6 6 7 9 9 12 8 2 4 3 2 10 3 3 2 1 3 10 10 7 13 10 4 10 9 6 7 4 8 3 5 5 4 8 9 7 3 3 5 5 3 2 3 3 4 3 4 3 4 5 11 10 5 5 6 1 3 3 5 5 5 5 4 5 6 6 7 7 8 7 8 8 8
14 14 13 12 11 11 10 10 10 10 9 8 8 9 16 8 5 5 6 4 7 3 3 6 10 7 13 8 4 4 2 10 15 7 3 5 6 5 9 7 4 3 3 5 2 3 6 10 15 4 3 2 2 1 5 3 4 6 6 3 4 3 4 3 3 5 10 8 4 4 2 1 3 4 4 4 5 5 5 5 6 8 8 7 7 7 6 8
15 14 13 12 11 11 10 10 9 8 8 7 6 5 7 17 8 4 7 6 5 5 9 6 3 2 8 2 2 5 6 4 3 5 6 3 4 4 6 4 4 7 2 1 6 1 10 7 2 3 7 5 2 2 1 6 5 6 5 4 1 4 6 2 1 7 13 9 5 8 2 3 4 5 4 3 5 6 5 6 7 6 7 7 7 7 7 7
14 14 13 12 11 10 10 10 9 7 7 6 4 2 3 8 20 17 9 5 2 6 5 7 3 2 6 3 7 10 6 5 8 7 5 3 3 6 7 7 3 3 2 0 7 12 6 5 5 7 3 9 9 3 2 3 4 3 4 2 2 1 3 3 5 9 14 7 5 5 3 3 4 3 3 4 3 5 5 5 6 7 6 6 6 6 7 7
13 13 12 12 11 10 9 11 12 9 8 3 2 1 1 1 1 14 14 8 7 6 6 12 10 7 2 11 5 6 5 2 4 6 14 11 6 1 2 0 2 4 1 6 7 7 6 4 1 5 13 12 11 9 8 5 2 2 1 2 2 2 2 3 4 3 8 8 5 8 3 5 5 4 4 5 5 4 5 4 3 3 4 5 5 6 7 7
15 14 13 12 12 10 10 10 12 10 5 3 2 2 1 2 5 5 11 16 11 6 5 2 1 3 2 4 9 10 5 3 4 11 8 3 5 5 6 6 2 8 6 5 5 8 5 11 9 7 6 8 5 5 5 3 3 4 3 1 1 3 1 1 1 2 4 4 2 4 5 4 4 4 4 5 6 2 3 4 3 3 4 5 6 7 7 8
15 15 13 13 12 11 11 10 13 9 6 5 4 4 1 2 5 3 3 6 1 3 4 3 4 2 4 3 5 10 5 3 2 13 12 9 3 3 10 7 7 9 7 2 1 1 1 11 8 5 4 5 4 2 3 4 1 2 3 0 1 3 1 2 2 3 5 4 3 5 5 3 3 3 3 4 4 3 5 5 4 5 5 4 6 7 8 8
15 14 14 14 13 11 9 9 11 6 7 6 7 7 3 1 2 4 2 7 4 3 2 3 3 2 2 3 1 1 4 3 10 19 12 14 11 2 6 9 10 10 5 1 2 1 12 11 4 4 1 1 3 2 1 0 2 3 1 1 2 2 5 6 1 3 6 4 3 5 5 4 2 3 3 3 3 3 3 3 5 6 6 5 5 7 8 9
16 15 14 12 13 9 7 7 9 11 5 8 6 6 4 2 4 2 2 9 6 3 4 4 5 6 4 3 1 4 4 14 5 13 14 12 4 10 3 7 10 8 12 8 3 3 9 8 7 1 2 2 4 3 2 2 2 3 2 2 1 3 4 2 2 4 6 4 4 7 5 4 3 3 4 2 3 3 4 5 5 4 5 6 6 6 7 8
16 14 14 13 13 9 7 5 2 9 8 6 8 5 2 3 3 3 1 3 4 2 3 1 1 1 5 6 5 7 8 3 2 14 11 7 6 3 2 5 9 7 11 11 16 15 8 4 2 0 2 4 2 5 4 1 1 2 3 1 1 2 2 3 3 7 4 2 3 6 4 5 5 5 4 3 3 4 3 3 4 5 6 5 7 6 5 6
17 16 15 14 12 8 3 2 8 3 3 2 5 1 0 1 1 3 2 1 2 3 2 2 1 3 3 2 2 1 3 4 4 4 3 6 4 1 3 2 2 3 2 4 5 13 9 3 2 1 1 1 2 2 4 3 0 1 3 2 1 2 6 4 5 6 2 2 3 6 4 1 5 5 5 2 3 4 2 2 3 4 3 3 4 5 5 5
16 15 13 13 12 6 5 4 1 1 2 4 1 1 0 0 2 2 2 2 2 4 1 7 3 4 4 3 6 2 3 4 2 3 3 4 3 1 4 3 4 3 3 3 8 6 3 0 2 1 3 3 2 3 1 2 1 1 3 2 1 4 3 3 3 2 1 2 3 2 4 3 4 6 6 4 4 6 2 3 2 3 4 5 5 6 6 7
16 15 13 13 14 3 0 2 1 2 2 1 2 1 1 1 2 1 1 1 3 3 5 2 1 3 0 3 2 4 0 3 1 2 4 4 5 2 3 3 2 3 2 0 1 4 1 3 4 1 1 0 2 3 3 3 3 1 2 1 4 3 3 0 1 0 1 1 2 1 2 4 3 4 4 1 5 5 4 3 2 2 3 6 7 7 7 7
16 14 11 11 15 12 4 7 3 3 1 2 1 0 1 1 1 3 0 3 1 2 4 4 2 3 5 6 9 7 3 8 2 5 5 5 3 2 7 5 5 2 1 2 4 0 4 3 7 7 3 2 3 3 6 2 3 2 1 4 2 1 2 1 1 1 1 2 1 1 1 2 2 2 3 1 5 4 4 2 1 2 4 5 7 7 8 8
17 16 11 5 10 11 6 4 4 4 1 0 0 1 0 1 1 1 1 2 1 2 4 1 2 2 8 4 6 3 2 7 5 5 10 3 8 3 5 2 4 7 4 3 5 2 1 2 2 2 5 4 5 4 4 3 3 3 2 3 3 3 2 1 1 1 0 1 1 2 5 3 3 3 3 2 4 6 4 4 3 3 4 6 7 7 8 8
16 15 12 3 2 2 4 3 6 1 1 1 1 1 1 2 1 0 1 1 0 0 3 4 3 7 5 2 3 8 8 5 2 8 4 5 10 8 6 3 1 1 9 11 11 3 1 1 1 1 5 5 5 4 1 3 2 1 3 4 3 3 0 0 1 1 1 2 1 2 4 4 3 1 1 1 0 2 4 4 4 4 4 4 5 7 7 7
13 15 13 5 5 1 1 4 1 1 1 0 0 1 1 2 1 3 2 1 3 1 2 4 2 3 7 6 3 6 2 4 8 7 5 5 11 7 1 2 2 1 4 4 6 1 2 2 2 2 2 4 3 2 2 2 1 2 1 2 2 3 2 1 1 0 2 1 4 1 4 3 3 1 2 2 1 2 4 6 6 5 5 4 6 7 7 7
8 13 14 9 1 0 2 4 2 2 1 1 3 0 2 2 2 3 3 5 1 1 2 2 2 1 3 1 3 7 5 4 3 7 6 4 6 10 10 5 6 0 2 5 3 1 2 5 3 2 4 5 4 4 4 3 5 2 3 2 2 1 1 1 1 1 1 3 3 1 5 2 7 4 2 2 4 4 5 6 6 6 7 7 6 7 7 7
8 4 11 8 1 4 4 1 2 1 1 2 1 1 0 2 2 1 1 2 0 2 1 0 2 4 3 1 4 4 2 5 5 4 1 1 1 6 6 11 3 2 2 2 2 3 2 2 2 1 1 4 7 5 4 1 5 7 3 4 2 3 2 2 1 1 4 2 2 2 2 4 5 3 3 4 2 1 3 4 6 7 9 9 9 9 8 9
10 7 5 3 6 4 2 2 1 0 1 1 1 1 2 3 1 3 1 1 0 2 2 2 2 1 4 3 3 5 1 1 3 5 4 1 4 4 6 9 12 4 1 2 4 4 2 1 4 7 4 5 5 5 3 3 5 4 3 3 3 2 2 3 2 3 4 5 1 2 2 2 3 3 1 3 3 3 3 4 4 6 7 8 8 8 9 9
4 6 4 2 2 3 2 1 1 2 1 0 4 1 3 0 1 2 1 1 1 1 1 1 0 0 2 2 2 1 2 1 5 3 8 4 4 2 6 8 9 5 2 2 3 1 2 2 2 3 2 4 4 2 2 2 3 1 1 4 1 3 3 3 2 2 3 5 5 3 2 1 3 3 1 1 4 5 4 4 4 8 6 4 6 8 8 7
2 1 1 3 4 3 2 1 1 1 1 2 3 4 2 2 1 2 1 2 2 1 2 0 0 0 1 1 0 3 1 1 4 2 2 5 1 2 2 2 6 7 5 3 3 2 1 1 1 1 1 3 2 3 2 3 3 2 2 3 2 1 1 2 3 3 2 3 5 1 6 3 6 3 2 1 3 5 3 5 6 7 6 5 7 9 7 6
1 2 1 4 2 3 2 1 1 1 1 2 3 1 0 1 2 0 3 1 1 0 2 1 1 1 0 1 2 4 1 1 1 1 2 1 1 2 2 0 1 2 3 2 2 1 1 3 3 1 2 2 2 2 2 4 2 3 2 2 4 1 2 1 3 1 1 2 1 2 3 8 5 1 1 1 2 3 4 6 5 6 6 7 7 7 6 6
1 3 2 2 4 4 1 2 2 2 4 5 4 4 1 1 1 1 1 1 1 1 2 0 0 2 1 1 2 3 6 1 5 2 1 2 1 1 1 2 2 2 2 2 2 1 2 2 3 0 1 1 2 1 2 2 2 5 5 3 3 0 1 1 1 2 4 3 6 3 5 6 5 3 1 2 3 1 0 0 2 4 4 5 6 7 7 7
2 1 0 2 3 3 2 3 1 2 1 7 1 3 1 0 0 1 0 1 2 1 1 0 0 1 1 1 1 1 4 2 2 2 0 2 0 1 1 1 1 2 1 2 0 2 1 2 1 2 1 3 1 1 1 2 5 4 1 2 0 2 1 3 2 1 1 4 4 4 2 5 4 1 2 2 5 2 2 3 3 3 5 5 6 6 6 7
2 1 1 1 4 3 3 1 4 6 4 3 2 0 1 1 1 1 1 2 1 0 2 3 1 2 2 1 1 0 1 1 1 0 0 1 0 1 1 2 2 1 2 1 2 2 0 0 2 3 1 1 2 3 1 3 2 1 1 1 2 2 1 0 1 1 2 2 1 4 7 1 2 2 3 3 4 4 3 3 3 5 6 6 6 6 6 8
0 1 0 2 4 4 4 9 14 8 5 0 3 3 0 2 2 1 1 2 1 2 1 1 4 1 3 2 1 1 0 1 0 1 0 1 1 0 2 0 1 1 1 0 1 0 0 1 2 4 1 1 3 2 2 2 1 2 2 2 2 0 1 2 1 2 2 2 1 1 8 9 4 1 3 2 3 2 2 3 5 6 7 7 7 7 7 7
1 1 1 3 4 2 1 6 5 1 2 2 1 1 2 2 3 1 0 2 2 1 1 3 3 3 1 2 1 2 1 1 0 0 2 0 2 1 2 1 0 2 1 0 1 1 2 0 1 4 2 2 3 4 1 1 1 1 3 1 1 1 2 1 4 1 1 1 2 1 3 7 2 2 3 4 4 4 4 3 6 7 8 9 8 9 9 9
2 1 1 3 3 2 9 6 0 3 4 1 4 1 1 1 1 0 1 1 0 1 1 1 1 2 1 1 2 1 2 1 1 0 1 0 1 1 3 1 1 1 2 2 1 1 2 0 2 4 0 4 5 3 3 2 1 1 2 1 2 2 1 2 2 1 2 2 2 2 4 8 1 1 2 3 4 5 4 5 8 8 9 10 11 11 11 11
1 2 2 1 0 1 1 0 1 1 1 2 0 1 2 0 1 2 0 1 1 1 1 2 1 3 3 1 1 3 2 1 2 2 1 2 1 3 3 2 2 1 2 2 1 3 1 1 1 4 2 2 2 1 1 1 1 3 2 4 2 3 4 4 5 1 2 6 4 1 7 2 2 1 1 2 2 6 6 5 4 8 10 9 10 11 9 10
1 0 1 4 5 2 1 0 6 4 2 4 2 2 1 1 2 2 1 1 1 0 1 1 2 3 3 1 3 2 2 1 1 1 2 3 1 1 1 1 1 1 0 2 1 1 2 1 1 3 5 7 6 6 5 4 1 2 1 2 4 7 8 4 2 2 3 1 4 4 7 6 5 5 4 4 3 9 10 9 6 7 10 12 11 10 10 10
0 1 2 2 7 6 5 2 3 5 7 4 3 1 0 2 0 1 1 2 1 1 2 3 1 1 4 1 2 2 2 3 1 1 2 2 2 1 0 1 1 1 3 1 2 1 0 1 2 2 3 6 7 4 3 1 1 4 5 7 7 7 6 3 2 2 6 3 7 14 10 15 22 18 6 8 6 9 13 13 11 10 10 9 8 9 9 9
1 2 1 1 2 5 3 2 2 2 4 5 2 4 2 1 2 1 2 0 2 0 1 2 3 4 1 1 2 1 1 3 3 0 2 2 2 2 1 1 0 1 4 2 2 1 1 2 5 5 9 12 8 7 2 2 11 15 10 8 9 10 9 9 8 6 6 2 11 7 10 10 15 15 15 17 16 12 9 10 11 10 10 9 9 10 13 11
0 0 1 1 0 1 0 2 3 3 4 1 1 2 4 3 2 2 0 0 1 1 0 0 1 4 6 3 6 2 1 1 2 2 1 1 2 2 2 1 2 2 2 1 2 2 0 2 2 3 7 11 9 11 7 8 12 13 10 8 9 12 11 13 15 10 8 8 13 2 4 6 15 17 19 18 16 13 14 17 14 12 12 11 9 10 11 11
2 1 2 2 0 0 1 0 2 5 6 3 2 2 3 4 6 3 2 2 0 1 4 1 5 8 6 1 1 1 3 1 2 1 3 2 2 4 2 1 2 1 2 1 0 1 1 3 1 1 10 12 13 13 9 10 10 9 12 12 13 12 16 18 17 13 15 18 18 18 18 22 20 22 21 19 15 14 15 13 12 11 11 10 9 10 11 11
1 1 0 2 4 3 0 1 1 1 2 1 2 3 6 8 5 2 2 3 2 2 2 2 3 4 5 5 3 2 6 4 2 1 5 5 0 3 2 2 4 1 1 2 1 1 1 1 3 2 3 6 2 4 3 7 7 12 10 11 12 12 13 15 13 13 12 16 22 22 19 19 20 19 15 13 11 11 10 12 13 12 10 9 10 10 10 11
1 0 2 4 2 1 0 1 1 1 1 0 1 2 2 5 6 7 4 3 2 5 7 6 7 7 2 3 2 7 4 5 4 2 9 6 1 4 3 2 6 6 5 2 2 1 1 1 2 0 4 4 3 1 4 9 11 11 17 11 10 11 10 11 12 13 11 14 8 4 9 12 15 11 6 8 9 9 11 12 11 10 10 9 9 11 12 12
2 1 1 1 2 2 0 1 0 0 1 2 2 5 4 7 3 5 1 2 2 2 4 5 6 6 1 3 11 8 3 5 3 1 3 2 3 4 3 3 2 5 6 5 2 3 2 2 1 1 3 6 1 4 10 12 11 4 3 5 13 12 9 4 8 7 16 12 6 7 10 11 9 3 7 12 8 9 10 11 9 10 11 9 10 11 13 13
Wind_Direction
38 35 30 28 25 23 22 22 21 19 17 15 13 15 10 11 16 9 2 358 340 335 356 2 349 337 295 269 268 278 317 342 24 36 39 9 344 339 339 339 342 338 334 317 21 104 40 35 34 343 59 42 352 29 354 33 353 322 56 87 73 77 80 58 67 62 87 121 102 85 8 327 97 46 84 218 212 30 110 49 47 186 167 12 342 310 318 321
34 28 24 21 20 19 18 20 20 18 13 13 14 10 8 12 18 15 7 348 349 323 10 17 13 353 296 227 226 338 243 333 31 36 32 355 344 344 343 342 342 351 327 43 31 23 76 48 37 56 54 55 333 51 314 45 356 53 76 68 98 49 84 47 78 96 146 98 88 69 73 348 59 314 25 287 48 17 52 58 18 22 36 10 356 341 331 323
21 18 17 15 14 13 12 10 12 11 14 12 13 7 6 6 5 351 336 336 341 345 322 331 354 26 50 178 197 32 329 286 34 14 352 355 344 341 343 340 345 348 3 30 20 60 83 106 321 79 43 84 14 47 44 26 19 21 70 85 76 89 104 85 57 79 39 38 101 114 113 328 47 311 322 341 11 27 29 8 9 7 357 356 352 345 331 324
18 14 12 12 10 12 9 8 5 9 10 10 5 4 355 355 338 337 324 317 346 346 349 342 327 18 148 156 167 35 174 347 56 346 343 346 343 338 339 339 346 347 319 34 22 74 95 87 59 73 82 64 50 40 50 354 40 353 62 82 123 137 109 90 26 58 60 301 39 40 125 120 32 357 332 347 260 41 36 36 348 344 343 341 345 343 336 340
15 13 9 9 10 7 6 3 4 3 1 7 1 359 351 345 332 323 320 328 323 347 343 345 356 55 114 51 38 291 118 29 19 349 346 339 338 340 333 342 347 346 346 183 147 93 86 71 80 58 54 76 31 66 44 43 53 84 55 84 113 149 101 127 41 25 323 334 327 350 14 43 331 110 17 349 24 25 4 356 345 330 336 335 335 335 331 350
13 10 9 6 5 5 3 1 0 359 359 352 355 342 343 333 325 325 335 340 346 329 342 345 313 56 58 87 104 160 151 62 338 332 344 335 330 338 336 339 344 340 289 76 91 63 85 27 77 41 49 64 35 69 20 72 258 93 75 69 75 12 100 84 229 88 273 336 6 15 40 287 344 91 26 328 10 7 1 336 319 319 321 319 308 310 336 352
10 7 5 5 2 3 0 357 356 356 347 343 340 348 337 343 332 340 343 348 337 333 326 333 259 256 22 34 66 67 72 131 327 332 339 334 326 330 341 335 342 16 15 58 37 66 62 77 73 80 95 82 54 76 66 70 71 96 106 104 73 33 74 35 11 337 234 6 18 9 273 195 345 84 299 12 30 360 332 319 299 301 298 290 303 339 344 343
8 6 6 4 2 357 353 348 341 337 344 336 331 341 338 335 348 1 353 340 335 341 1 50 48 277 341 20 339 59 59 2 335 344 333 332 333 342 348 6 360 25 44 35 339 63 36 57 86 90 48 79 94 93 97 80 59 92 101 106 109 74 61 60 47 77 142 61 331 225 149 87 297 79 240 34 2 335 317 295 277 289 282 288 327 347 344 341
8 6 3 1 356 347 348 2 10 7 344 350 352 342 348 350 352 352 355 342 335 355 23 49 75 100 254 98 216 70 27 345 325 323 342 339 330 339 3 22 344 36 57 32 18 118 162 67 70 314 133 100 357 110 301 24 65 68 107 113 106 88 72 33 119 78 42 46 354 176 92 106 159 291 106 30 359 337 308 277 261 292 309 345 342 344 343 341
6 5 359 355 350 350 13 27 33 31 22 11 1 349 343 345 343 356 355 358 350 357 5 26 29 344 66 252 61 70 14 289 319 340 343 342 328 341 20 16 1 30 49 12 32 22 52 81 92 88 105 78 52 42 27 74 113 128 121 108 94 79 76 39 65 55 19 51 356 82 113 117 161 246 77 54 358 341 310 293 277 301 345 349 348 341 348 340
6 5 2 357 357 357 6 17 19 24 24 18 9 356 345 338 354 8 358 338 3 349 10 358 16 4 64 55 67 73 344 341 358 345 344 342 342 17 16 2 353 34 57 46 46 22 18 68 56 141 44 84 89 44 59 74 120 120 123 117 102 98 67 46 57 37 303 62 7 330 122 185 147 258 15 337 340 333 313 335 345 350 353 349 348 344 343 345
5 2 4 2 3 6 4 355 355 4 15 14 12 9 354 354 360 3 347 326 27 14 7 24 41 252 69 65 58 45 347 301 335 348 338 351 13 25 351 13 13 22 47 65 48 23 355 19 192 313 117 220 82 108 70 70 107 132 238 118 96 141 63 27 23 359 307 74 7 348 236 125 55 30 349 342 328 319 302 331 357 359 352 348 346 343 345 351
5 4 5 4 3 2 359 356 349 347 344 356 7 10 2 356 355 355 349 9 7 21 32 37 272 82 80 58 42 261 304 301 312 314 345 1 360 196 40 39 39 29 20 76 60 19 345 271 88 73 22 75 110 23 137 138 97 198 48 74 156 171 65 26 360 2 262 68 327 312 241 45 50 25 10 353 337 324 306 3 5 355 346 343 342 340 339 349
5 4 3 1 358 356 354 354 351 344 349 341 0 5 11 5 3 351 2 23 8 355 26 22 18 49 78 127 129 239 273 315 252 3 7 337 3 29 196 43 45 38 3 87 99 43 54 58 78 99 61 48 104 208 128 118 237 172 341 268 24 310 52 47 28 352 96 107 298 314 294 85 65 38 18 5 344 337 349 354 355 351 343 341 340 338 339 345
5 3 360 357 352 346 346 348 345 347 343 342 350 12 19 27 21 11 7 14 359 330 330 263 34 121 49 76 246 324 39 207 10 18 2 1 358 336 350 340 24 25 30 46 78 16 27 239 67 47 60 329 106 165 103 105 74 51 240 52 21 24 96 78 31 27 21 332 315 305 101 69 49 24 9 9 348 332 334 348 348 346 341 339 341 345 344 340
3 360 357 355 348 343 344 345 344 343 342 339 335 360 36 36 35 34 38 31 337 28 242 64 356 71 104 60 28 175 8 14 356 342 13 5 2 11 299 291 281 44 29 67 48 66 54 44 65 66 104 185 71 63 148 151 77 31 30 74 21 340 24 202 80 18 9 310 241 336 34 188 108 21 21 15 351 341 328 345 347 341 340 341 342 339 332 336
0 357 353 350 346 341 339 340 340 327 321 312 306 284 12 45 31 78 70 41 5 333 64 26 344 273 58 277 218 355 4 338 311 324 347 89 2 322 313 8 28 347 4 199 46 86 11 48 227 131 42 46 331 70 250 57 49 47 19 59 27 12 333 37 2 47 352 2 14 4 43 44 355 355 359 27 3 342 331 338 339 338 333 337 333 334 335 336
356 355 349 345 342 335 328 335 330 319 301 281 242 342 328 357 40 44 12 8 329 81 139 124 197 44 109 63 16 329 338 286 342 310 247 1 21 355 20 22 339 298 324 158 35 29 336 54 351 97 63 28 22 50 58 45 2 351 351 29 98 181 13 345 354 4 348 356 4 4 86 45 12 2 23 2 356 333 323 335 325 322 332 334 331 331 335 336
355 353 348 341 339 335 332 336 342 333 329 285 148 202 246 242 25 57 28 353 41 3 33 353 359 70 58 327 289 282 296 296 287 339 349 4 330 25 48 196 280 12 19 50 11 6 9 103 144 41 23 11 19 18 65 76 73 84 344 27 332 340 56 15 12 22 2 341 19 13 358 331 339 351 351 356 352 328 327 319 311 311 325 332 332 331 335 332
352 351 350 343 342 337 338 338 350 344 344 127 95 169 108 32 17 26 360 36 58 47 84 347 316 73 32 9 337 306 269 332 336 3 4 35 311 323 42 0 318 70 34 50 332 35 308 69 39 38 14 9 9 21 53 66 87 125 109 198 14 299 188 203 228 348 340 283 51 345 318 279 297 331 337 335 327 301 342 359 338 350 345 339 334 331 330 337
352 349 345 346 344 343 347 344 354 344 29 84 84 58 60 163 93 69 345 64 175 356 46 51 39 28 45 308 318 350 1 334 112 14 17 291 189 308 356 346 353 55 27 315 360 327 258 67 39 21 2 352 9 41 110 108 61 61 120 222 141 300 73 84 314 352 341 307 82 2 310 267 278 306 320 317 295 348 352 337 345 338 336 328 327 327 332 333
352 350 348 349 344 344 340 344 358 347 18 75 63 89 103 76 352 30 163 75 44 23 36 58 229 42 197 229 130 326 208 279 12 7 356 4 359 28 340 48 49 53 336 268 258 115 51 56 27 5 153 117 71 91 339 62 86 56 17 117 250 44 307 290 257 335 345 280 4 355 308 254 267 278 286 288 310 302 324 302 299 306 311 324 332 329 326 328
356 350 348 340 344 332 337 352 9 27 25 36 73 93 78 31 340 311 283 125 80 324 35 11 31 20 21 175 146 203 8 42 327 358 357 342 2 49 313 48 51 59 35 10 75 51 67 43 15 347 198 229 59 41 111 91 65 25 21 224 16 1 320 166 124 347 7 353 342 329 278 243 237 237 241 261 282 289 293 283 277 264 287 310 315 315 306 311
354 350 345 342 344 335 340 3 328 34 37 46 68 59 65 16 325 292 70 59 114 3 32 40 356 44 37 357 356 356 43 38 347 341 355 4 38 264 52 37 75 46 56 39 64 74 77 3 35 148 229 238 36 24 27 216 112 100 21 338 294 325 330 282 352 327 301 188 297 288 235 242 211 213 214 197 213 258 247 297 247 223 241 267 274 265 245 302
358 356 353 341 338 328 324 34 40 55 232 6 63 65 42 31 316 352 114 117 56 76 179 139 200 57 356 261 343 238 65 149 60 250 315 7 5 241 69 165 286 43 53 316 85 81 63 15 192 223 134 71 298 44 31 324 181 177 183 296 318 306 286 277 287 318 213 180 55 353 282 178 167 202 240 203 247 243 171 300 295 336 319 283 305 344 342 317
358 360 355 340 341 335 241 47 87 162 85 51 359 120 235 95 344 293 85 73 73 318 245 17 199 31 187 11 13 45 263 66 283 355 303 31 216 33 191 63 345 118 176 92 74 75 67 296 37 35 52 55 81 71 106 294 328 265 66 215 249 297 269 265 315 261 275 317 42 307 347 322 152 219 200 206 259 260 262 260 291 328 325 328 341 342 339 334
358 358 2 353 356 333 28 141 127 193 68 101 108 286 275 287 286 284 284 347 60 360 6 327 239 45 253 346 330 232 52 24 30 308 29 44 3 248 51 5 126 68 41 123 213 63 309 29 20 68 57 83 356 37 66 346 301 22 100 217 279 257 250 256 304 334 345 285 269 348 346 292 288 188 175 178 279 273 269 259 258 334 338 344 339 335 335 337
358 359 6 12 19 30 82 113 126 54 46 59 40 296 244 303 202 261 357 72 2 339 360 339 29 320 40 323 350 51 91 292 342 41 76 302 263 38 65 51 52 3 63 249 89 28 39 6 4 11 354 27 32 309 319 310 309 19 37 285 264 314 105 143 277 72 68 311 238 105 338 245 245 122 139 233 289 272 276 297 265 323 341 338 331 329 330 332
358 359 3 29 52 65 52 73 82 100 88 359 42 188 73 159 228 94 194 99 245 65 167 176 156 37 349 296 47 52 330 353 59 322 336 237 37 251 69 55 100 97 115 269 107 143 74 34 356 290 358 11 321 328 308 275 336 80 99 94 102 110 106 302 272 302 148 281 258 23 336 333 308 123 201 175 258 278 306 316 281 290 321 319 315 319 326 330
4 355 1 340 166 16 15 51 52 63 169 331 209 177 188 204 287 354 32 2 359 299 43 302 2 322 324 337 37 11 33 7 143 308 18 53 356 47 73 331 216 26 65 46 68 62 109 200 277 322 26 318 295 321 326 227 116 281 177 248 196 191 158 195 20 328 278 236 120 78 14 9 309 155 202 217 14 320 310 284 259 249 262 293 317 326 332 332
8 5 6 5 66 137 310 62 92 156 57 222 95 218 231 40 107 95 91 197 43 294 224 35 355 342 16 29 34 1 95 2 358 356 14 350 19 18 5 194 231 101 110 109 84 83 158 183 187 79 197 287 235 247 168 205 233 214 239 259 203 198 179 206 168 278 273 267 105 74 31 338 269 96 185 212 120 235 269 283 286 266 283 312 331 335 334 331
10 28 26 45 91 151 37 120 110 137 154 199 219 79 91 240 44 50 141 341 185 10 37 334 93 349 35 279 77 353 357 334 43 23 27 20 20 37 18 48 337 222 59 18 37 140 118 64 314 295 150 350 346 266 163 190 220 243 244 230 272 353 252 209 153 266 174 321 110 94 331 261 220 263 69 155 230 231 239 264 282 288 284 294 310 324 330 326
9 15 50 45 58 47 45 33 61 138 181 240 129 44 67 94 72 254 268 336 63 351 117 105 349 2 335 282 46 350 275 23 331 58 244 260 81 95 87 48 328 299 31 353 302 359 134 348 352 41 197 23 331 10 354 190 5 356 11 341 336 353 30 336 351 213 277 129 82 162 34 254 291 258 160 221 203 269 301 267 274 280 286 295 300 309 314 314
27 17 66 25 65 65 104 75 59 156 248 219 241 34 42 55 181 63 181 274 78 350 350 338 352 214 21 53 26 340 98 123 341 5 351 356 15 30 17 48 21 354 10 63 30 351 339 106 60 354 33 345 17 28 353 314 320 25 238 333 28 48 7 337 326 317 339 313 330 97 291 263 324 81 359 80 49 332 289 282 282 281 280 282 291 291 287 293
70 57 96 111 99 68 39 89 65 242 266 328 59 80 96 171 227 180 199 221 235 296 204 335 220 304 53 91 349 246 318 63 51 312 18 17 31 17 4 350 2 4 242 271 84 254 37 284 53 16 314 314 16 14 285 311 241 229 305 244 324 54 312 301 13 299 333 334 302 151 237 356 284 75 350 344 311 287 274 262 255 271 263 275 287 283 288 293
243 19 28 47 9 20 54 329 281 233 271 53 79 42 58 166 163 160 99 53 107 157 125 229 222 110 10 71 133 75 110 331 21 350 52 40 234 37 293 326 353 7 359 34 330 349 279 178 61 33 208 15 33 319 36 300 4 16 255 32 57 340 281 111 132 89 187 201 237 328 284 207 258 164 346 298 283 278 263 259 255 262 268 277 277 280 285 292
33 301 104 354 23 15 345 318 262 262 51 79 89 91 118 268 280 220 24 206 65 244 130 234 25 22 76 24 330 3 35 250 359 325 47 205 113 44 3 53 181 358 45 331 113 177 321 320 101 296 207 117 317 300 333 356 307 279 30 81 96 36 339 316 330 216 241 308 290 83 302 306 347 353 134 200 255 266 243 248 254 268 273 275 279 291 301 302
17 55 91 27 351 337 303 269 277 32 74 82 58 105 277 103 201 281 4 229 180 232 140 78 87 336 221 238 44 343 338 302 18 345 74 333 101 266 281 327 129 27 353 313 317 61 317 273 145 105 305 57 141 226 216 108 350 25 72 128 277 16 237 107 228 354 339 310 307 285 299 251 229 249 164 164 208 200 266 189 256 271 273 276 282 290 293 303
82 142 101 13 345 327 322 290 350 42 74 65 153 130 239 348 83 236 76 312 298 231 117 217 96 330 152 157 302 199 321 55 337 59 112 38 16 190 286 293 67 144 19 281 278 106 224 315 122 147 227 356 326 275 302 76 69 51 157 123 342 262 74 317 46 280 216 289 329 293 56 304 175 216 195 182 202 201 231 249 267 281 279 281 283 285 297 304
4 359 343 360 324 337 308 260 65 42 58 97 172 79 117 141 169 181 184 254 101 231 122 144 242 115 265 291 334 103 24 46 12 42 354 350 108 30 233 170 321 12 15 277 88 288 98 14 325 98 217 264 182 5 36 352 340 127 214 79 133 62 359 41 106 284 301 301 290 317 317 295 109 196 200 210 206 204 220 281 289 287 286 282 280 282 289 299
166 98 266 4 317 320 299 41 44 30 81 95 43 127 296 177 172 143 155 253 268 320 278 163 157 152 169 142 205 277 110 72 282 131 113 153 237 201 130 173 139 10 339 231 157 335 220 203 303 310 272 153 71 55 2 335 345 293 306 24 23 339 302 315 295 81 10 273 244 230 281 292 323 66 272 340 37 357 345 296 288 287 290 290 288 285 283 289
41 42 294 12 319 289 122 55 35 298 82 105 99 131 110 133 79 79 35 142 291 117 352 103 39 96 117 51 40 173 172 126 152 133 229 250 147 335 94 46 335 346 279 14 12 60 325 62 295 296 333 25 79 93 13 276 241 268 293 190 340 94 265 130 320 103 219 165 18 30 306 279 40 345 310 297 302 292 298 290 278 285 288 289 285 284 286 280
59 287 81 353 360 351 64 77 95 45 58 346 298 19 347 24 106 245 231 298 182 287 123 68 117 95 328 170 183 118 241 142 183 57 125 223 246 23 86 85 321 262 260 110 235 162 230 278 282 244 148 95 121 117 151 104 216 197 201 273 178 198 155 288 294 44 271 118 215 176 229 258 108 91 267 283 283 288 270 245 268 278 287 291 291 289 292 294
174 271 358 106 63 324 96 153 119 48 105 330 106 79 330 215 161 106 282 278 223 175 148 137 141 334 122 191 131 139 234 140 249 171 204 183 143 62 42 44 201 191 269 89 292 123 279 117 285 299 296 162 155 162 197 36 323 253 247 170 208 78 74 88 91 60 272 202 197 198 270 250 91 193 226 238 294 299 291 262 213 281 290 285 291 296 294 296
114 296 267 306 8 17 117 140 132 134 169 144 137 128 145 66 28 347 302 157 316 325 154 101 18 145 86 96 81 87 353 349 145 310 357 193 127 36 79 355 284 235 334 309 277 27 248 284 289 339 344 336 340 338 343 323 224 173 214 144 188 171 139 165 202 146 249 105 167 220 258 263 170 168 215 228 268 291 283 280 259 234 267 291 299 299 301 303
53 143 317 355 14 45 80 17 70 127 138 159 102 169 126 99 132 134 214 83 337 89 358 98 71 92 101 162 67 15 46 338 350 150 189 185 168 168 342 351 199 177 175 155 82 257 150 53 247 229 254 278 287 330 115 268 259 236 170 193 183 209 197 230 47 189 242 159 215 231 246 293 297 290 275 281 257 270 289 300 302 302 293 279 275 285 292 294
175 71 355 330 351 57 74 28 74 98 157 198 124 168 140 88 110 68 188 9 177 274 75 9 170 160 180 165 172 92 12 317 20 152 232 158 93 105 61 356 49 167 192 166 7 96 104 264 214 211 254 254 281 289 212 202 265 272 260 230 181 184 190 193 197 232 130 124 265 242 240 243 264 283 299 304 307 304 300 300 298 297 295 296 296 298 292 286
76 133 76 181 123 21 48 50 39 85 62 78 75 56 141 140 183 150 235 334 94 263 123 141 164 282 178 157 151 161 171 9 11 210 112 15 133 146 167 263 225 344 295 154 340 253 235 267 57 141 250 258 269 270 262 264 252 257 256 247 211 191 181 202 221 215 160 226 253 128 152 250 272 287 290 290 290 301 303 299 293 289 286 284 285 285 286 283
53 117 116 284 162 295 25 330 56 103 82 71 106 106 169 181 186 186 160 125 328 178 237 208 235 202 193 190 184 106 165 169 262 239 196 157 200 151 191 137 213 337 206 145 85 348 214 252 293 248 279 273 259 251 250 246 263 260 242 236 236 208 205 212 229 217 210 240 252 273 286 283 283 279 278 280 293 295 292 293 291 281 274 275 275 273 272 277
189 163 139 3 79 115 108 68 67 37 91 300 118 218 168 183 173 164 291 165 153 237 143 231 238 125 156 166 182 182 207 206 162 222 194 141 103 235 254 232 129 125 222 179 128 312 244 302 79 276 291 285 98 101 185 235 243 269 250 214 218 220 228 222 233 240 237 258 261 268 275 279 274 267 268 274 281 282 285 278 274 280 275 272 277 275 272 276
70 8 134 127 83 57 133 11 158 40 143 205 165 184 155 204 210 175 181 215 216 171 184 207 146 111 97 171 204 245 205 192 147 93 177 181 250 172 183 167 145 145 172 148 202 110 251 265 74 21 320 284 108 351 274 259 249 251 279 263 224 194 215 223 215 219 200 226 242 244 263 257 259 262 265 255 253 267 270 277 285 287 287 279 272 274 278 279
91 74 322 104 98 285 183 112 171 140 221 208 132 172 195 209 163 162 143 187 199 311 223 156 162 112 132 166 229 216 175 167 131 63 106 61 80 82 35 70 147 160 162 168 156 185 204 194 184 43 301 262 118 339 313 314 300 266 249 241 184 195 209 238 240 213 209 208 218 228 239 235 262 345 302 286 260 246 252 260 269 277 275 272 267 268 274 278